Location: Baumgarten
(49.0970°N, 12.7493°E)
Time: 02:55:34
(UTC+00:00)

Cosmos 2084 - Pass Details

Date: 05 July 2020
Orbit: 571 x 611 km, 62.8° (Epoch: 04 August)

Event Time Altitude Azimuth Distance (km) Brightness Sun altitude
Rises 21:39:40 0° 311° (NW) 2,883 8.2 -15.2°
Reaches altitude 10° 21:42:05 10° 303° (WNW) 1,973 7.0 -15.4°
Maximum altitude 21:46:08 35° 238° (WSW) 997 4.5 -15.6°
Enters shadow 21:48:04 24° 192° (SSW) 1,283 4.7 -15.7°
